Time,TemperatureF,DewpointF,PressureIn,WindDirection,WindDirectionDegrees,WindSpeedMPH,WindSpeedGustMPH,Humidity,HourlyPrecipIn,Conditions,Clouds,dailyrainin,SoftwareType,DateUTC
2015-03-30 00:04:00,50.5,21.8,30.21,South,169,0.0,0.0,32,0.00,,FEW180,0.00,VWS V15.00,2015-03-30 07:04:00,
2015-03-30 00:09:00,49.9,21.2,30.21,South,169,0.0,0.0,32,0.00,,FEW180,0.00,VWS V15.00,2015-03-30 07:09:00,
2015-03-30 00:14:00,49.3,21.4,30.21,South,169,0.0,0.0,33,0.00,,FEW180,0.00,VWS V15.00,2015-03-30 07:14:00,
2015-03-30 00:19:00,48.6,21.5,30.21,South,169,0.0,0.0,34,0.00,,FEW180,0.00,VWS V15.00,2015-03-30 07:19:00,
2015-03-30 00:24:00,47.8,21.5,30.21,South,170,0.0,0.0,35,0.00,,FEW180,0.00,VWS V15.00,2015-03-30 07:24:00,
2015-03-30 00:29:00,47.2,22.9,30.21,South,170,0.0,0.0,38,0.00,,FEW180,0.00,VWS V15.00,2015-03-30 07:29:00,
2015-03-30 00:34:00,46.4,22.8,30.21,South,170,0.0,0.0,39,0.00,,FEW180,0.00,VWS V15.00,2015-03-30 07:34:00,
2015-03-30 00:39:00,46.2,23.2,30.21,South,170,0.0,0.0,40,0.00,,FEW180,0.00,VWS V15.00,2015-03-30 07:39:00,
2015-03-30 00:44:00,45.8,22.9,30.21,South,170,0.0,0.0,40,0.00,,FEW180,0.00,VWS V15.00,2015-03-30 07:44:00,
2015-03-30 00:49:00,45.3,23.0,30.21,South,170,0.0,0.0,41,0.00,,FEW180,0.00,VWS V15.00,2015-03-30 07:49:00,
2015-03-30 00:54:00,45.1,22.8,30.21,South,170,0.0,0.0,41,0.00,,FEW180,0.00,VWS V15.00,2015-03-30 07:54:00,
2015-03-30 00:59:00,45.6,22.1,30.21,South,170,0.0,0.0,39,0.00,,FEW180,0.00,VWS V15.00,2015-03-30 07:59:00,
2015-03-30 01:04:00,46.1,21.3,30.21,South,170,0.0,0.0,37,0.00,,FEW180,0.00,VWS V15.00,2015-03-30 08:04:00,
2015-03-30 01:09:00,46.6,21.7,30.21,South,170,0.0,0.0,37,0.00,,FEW180,0.00,VWS V15.00,2015-03-30 08:09:00,
2015-03-30 01:14:00,45.9,23.5,30.21,South,170,0.0,0.0,41,0.00,,FEW180,0.00,VWS V15.00,2015-03-30 08:14:00,
2015-03-30 01:19:00,45.3,24.1,30.21,South,170,0.0,0.0,43,0.00,,FEW180,0.00,VWS V15.00,2015-03-30 08:19:00,
2015-03-30 01:23:00,45.1,23.4,30.21,South,170,0.0,0.0,42,0.00,,FEW180,0.00,VWS V15.00,2015-03-30 08:23:00,
2015-03-30 01:28:00,44.7,23.0,30.21,South,170,0.0,0.0,42,0.00,,FEW180,0.00,VWS V15.00,2015-03-30 08:28:00,
2015-03-30 01:33:00,44.5,21.7,30.21,South,169,0.0,0.0,40,0.00,,FEW180,0.00,VWS V15.00,2015-03-30 08:33:00,
2015-03-30 01:38:00,45.2,21.1,30.21,South,170,0.0,0.0,38,0.00,,FEW180,0.00,VWS V15.00,2015-03-30 08:38:00,
2015-03-30 01:43:00,45.5,22.6,30.21,SW,233,0.0,1.0,40,0.00,,FEW180,0.00,VWS V15.00,2015-03-30 08:43:00,
2015-03-30 01:48:00,44.7,23.0,30.21,SW,233,0.0,1.0,42,0.00,,FEW180,0.00,VWS V15.00,2015-03-30 08:48:00,
2015-03-30 01:53:00,44.0,23.5,30.21,SW,233,0.0,1.0,44,0.00,,FEW180,0.00,VWS V15.00,2015-03-30 08:53:00,
2015-03-30 01:58:00,43.4,23.0,30.21,SW,233,0.0,0.0,44,0.00,,FEW180,0.00,VWS V15.00,2015-03-30 08:58:00,
2015-03-30 02:03:00,43.1,22.7,30.21,SW,233,0.0,0.0,44,0.00,,FEW180,0.00,VWS V15.00,2015-03-30 09:03:00,
2015-03-30 02:08:00,42.8,22.4,30.21,SW,233,0.0,0.0,44,0.00,,FEW180,0.00,VWS V15.00,2015-03-30 09:08:00,
2015-03-30 02:13:00,42.6,22.2,30.21,SW,233,0.0,0.0,44,0.00,,FEW180,0.00,VWS V15.00,2015-03-30 09:13:00,
2015-03-30 02:18:00,42.3,22.0,30.21,SW,233,0.0,0.0,44,0.00,,FEW180,0.00,VWS V15.00,2015-03-30 09:18:00,
2015-03-30 02:23:00,42.0,22.2,30.21,SW,233,0.0,0.0,45,0.00,,FEW180,0.00,VWS V15.00,2015-03-30 09:23:00,
2015-03-30 02:28:00,41.9,22.1,30.21,SW,233,0.0,0.0,45,0.00,,FEW180,0.00,VWS V15.00,2015-03-30 09:28:00,
2015-03-30 02:33:00,42.1,22.3,30.21,SW,233,0.0,0.0,45,0.00,,FEW180,0.00,VWS V15.00,2015-03-30 09:33:00,
2015-03-30 02:38:00,42.4,21.0,30.20,SW,233,0.0,0.0,42,0.00,,FEW180,0.00,VWS V15.00,2015-03-30 09:38:00,
2015-03-30 02:43:00,42.8,21.3,30.21,SW,233,0.0,0.0,42,0.00,,FEW180,0.00,VWS V15.00,2015-03-30 09:43:00,
2015-03-30 02:48:00,43.3,21.2,30.21,SW,233,0.0,0.0,41,0.00,,FEW180,0.00,VWS V15.00,2015-03-30 09:48:00,
2015-03-30 02:53:00,43.5,20.8,30.21,SW,233,0.0,0.0,40,0.00,,FEW180,0.00,VWS V15.00,2015-03-30 09:53:00,
2015-03-30 02:58:00,43.4,21.3,30.21,SW,224,0.0,1.0,41,0.00,,FEW180,0.00,VWS V15.00,2015-03-30 09:58:00,
2015-03-30 03:03:00,43.3,21.2,30.21,SSW,204,1.0,1.0,41,0.00,,FEW180,0.00,VWS V15.00,2015-03-30 10:03:00,
2015-03-30 03:08:00,43.1,21.0,30.20,SSW,203,0.0,1.0,41,0.00,,FEW180,0.00,VWS V15.00,2015-03-30 10:08:00,
2015-03-30 03:13:00,43.1,21.6,30.21,SSW,204,0.0,1.0,42,0.00,,FEW180,0.00,VWS V15.00,2015-03-30 10:13:00,
2015-03-30 03:18:00,43.2,21.7,30.20,SSW,203,0.0,1.0,42,0.00,,FEW180,0.00,VWS V15.00,2015-03-30 10:18:00,
2015-03-30 03:23:00,43.1,21.6,30.20,SSW,203,0.0,1.0,42,0.00,,FEW180,0.00,VWS V15.00,2015-03-30 10:23:00,
2015-03-30 03:28:00,43.3,22.3,30.20,SSW,203,0.0,1.0,43,0.00,,FEW180,0.00,VWS V15.00,2015-03-30 10:28:00,
2015-03-30 03:33:00,43.1,22.1,30.20,SSW,203,0.0,1.0,43,0.00,,FEW180,0.00,VWS V15.00,2015-03-30 10:33:00,
2015-03-30 03:38:00,42.5,22.1,30.20,SSW,203,0.0,1.0,44,0.00,,FEW180,0.00,VWS V15.00,2015-03-30 10:38:00,
2015-03-30 03:43:00,42.3,22.5,30.20,SSW,203,0.0,1.0,45,0.00,,FEW180,0.00,VWS V15.00,2015-03-30 10:43:00,
2015-03-30 03:48:00,42.4,22.0,30.20,SSW,203,0.0,1.0,44,0.00,,FEW180,0.00,VWS V15.00,2015-03-30 10:48:00,
2015-03-30 03:53:00,42.1,22.3,30.20,SSW,203,0.0,1.0,45,0.00,,FEW180,0.00,VWS V15.00,2015-03-30 10:53:00,
2015-03-30 03:58:00,41.7,21.9,30.20,SSW,203,0.0,0.0,45,0.00,,FEW180,0.00,VWS V15.00,2015-03-30 10:58:00,
2015-03-30 04:03:00,41.3,22.1,30.20,SSW,203,0.0,0.0,46,0.00,,FEW180,0.00,VWS V15.00,2015-03-30 11:03:00,
2015-03-30 04:08:00,41.2,22.0,30.21,SSW,203,0.0,0.0,46,0.00,,FEW180,0.00,VWS V15.00,2015-03-30 11:08:00,
2015-03-30 04:13:00,41.0,21.8,30.20,SSW,203,0.0,0.0,46,0.00,,FEW180,0.00,VWS V15.00,2015-03-30 11:13:00,
2015-03-30 04:18:00,40.5,22.4,30.21,SSW,203,0.0,0.0,48,0.00,,FEW180,0.00,VWS V15.00,2015-03-30 11:18:00,
2015-03-30 04:23:00,39.7,23.1,30.21,SSW,203,0.0,0.0,51,0.00,,FEW180,0.00,VWS V15.00,2015-03-30 11:23:00,
2015-03-30 04:28:00,39.1,23.0,30.21,SSW,203,0.0,0.0,52,0.00,,FEW180,0.00,VWS V15.00,2015-03-30 11:28:00,
2015-03-30 04:33:00,38.8,23.1,30.20,SSW,203,0.0,0.0,53,0.00,,FEW180,0.00,VWS V15.00,2015-03-30 11:33:00,
2015-03-30 04:38:00,38.4,23.2,30.20,SSW,203,0.0,0.0,54,0.00,,FEW180,0.00,VWS V15.00,2015-03-30 11:38:00,
2015-03-30 04:43:00,38.2,22.6,30.20,SSW,203,0.0,0.0,53,0.00,,FEW180,0.00,VWS V15.00,2015-03-30 11:43:00,
2015-03-30 04:48:00,37.7,23.0,30.21,SSW,203,0.0,0.0,55,0.00,,FEW180,0.00,VWS V15.00,2015-03-30 11:48:00,
2015-03-30 04:53:00,37.5,21.5,30.21,SSW,203,0.0,0.0,52,0.00,,FEW180,0.00,VWS V15.00,2015-03-30 11:53:00,
2015-03-30 04:58:00,37.3,21.3,30.21,SSW,203,0.0,0.0,52,0.00,,FEW180,0.00,VWS V15.00,2015-03-30 11:58:00,
2015-03-30 05:03:00,37.3,21.3,30.21,SSW,203,0.0,0.0,52,0.00,,FEW180,0.00,VWS V15.00,2015-03-30 12:03:00,
2015-03-30 05:08:00,37.6,20.2,30.21,SSW,203,0.0,0.0,49,0.00,,FEW180,0.00,VWS V15.00,2015-03-30 12:08:00,
2015-03-30 05:13:00,38.9,19.9,30.21,SSW,203,0.0,0.0,46,0.00,,FEW180,0.00,VWS V15.00,2015-03-30 12:13:00,
2015-03-30 05:18:00,40.2,20.6,30.21,SSW,203,0.0,0.0,45,0.00,,FEW180,0.00,VWS V15.00,2015-03-30 12:18:00,
2015-03-30 05:23:00,40.7,21.0,30.21,SSW,204,1.0,2.0,45,0.00,,FEW180,0.00,VWS V15.00,2015-03-30 12:23:00,
2015-03-30 05:28:00,40.9,21.2,30.21,SSW,205,0.0,2.0,45,0.00,,FEW180,0.00,VWS V15.00,2015-03-30 12:28:00,
2015-03-30 05:33:00,40.9,20.7,30.21,SSW,205,0.0,2.0,44,0.00,,FEW180,0.00,VWS V15.00,2015-03-30 12:33:00,
2015-03-30 05:38:00,41.1,21.4,30.21,SSW,205,0.0,2.0,45,0.00,,FEW180,0.00,VWS V15.00,2015-03-30 12:38:00,
2015-03-30 05:43:00,40.4,21.3,30.21,SSW,205,0.0,2.0,46,0.00,,FEW180,0.00,VWS V15.00,2015-03-30 12:43:00,
2015-03-30 05:48:00,39.5,21.5,30.21,SSW,205,0.0,2.0,48,0.00,,FEW180,0.00,VWS V15.00,2015-03-30 12:48:00,
2015-03-30 05:53:00,39.1,21.1,30.21,SSW,205,0.0,2.0,48,0.00,,FEW180,0.00,VWS V15.00,2015-03-30 12:53:00,
2015-03-30 05:58:00,38.5,21.0,30.21,SSW,205,0.0,0.0,49,0.00,,FEW180,0.00,VWS V15.00,2015-03-30 12:58:00,
2015-03-30 06:03:00,38.0,21.5,30.21,SSW,205,0.0,0.0,51,0.00,,FEW180,0.00,VWS V15.00,2015-03-30 13:03:00,
2015-03-30 06:08:00,37.7,21.2,30.21,SSW,205,0.0,0.0,51,0.00,,FEW180,0.00,VWS V15.00,2015-03-30 13:08:00,
2015-03-30 06:13:00,37.5,21.0,30.21,SSW,205,0.0,0.0,51,0.00,,FEW180,0.00,VWS V15.00,2015-03-30 13:13:00,
2015-03-30 06:18:00,37.4,20.9,30.21,SSW,205,0.0,0.0,51,0.00,,FEW180,0.00,VWS V15.00,2015-03-30 13:18:00,
2015-03-30 06:23:00,37.3,20.9,30.22,SSW,205,0.0,0.0,51,0.00,,FEW180,0.00,VWS V15.00,2015-03-30 13:23:00,
2015-03-30 06:28:00,37.3,20.9,30.22,SSW,205,0.0,0.0,51,0.00,,FEW180,0.00,VWS V15.00,2015-03-30 13:28:00,
2015-03-30 06:32:00,37.4,20.9,30.22,SSW,205,0.0,0.0,51,0.00,,FEW180,0.00,VWS V15.00,2015-03-30 13:32:00,
2015-03-30 06:37:00,37.7,20.8,30.22,SSW,205,0.0,0.0,50,0.00,,FEW180,0.00,VWS V15.00,2015-03-30 13:37:00,
2015-03-30 06:42:00,38.0,21.0,30.22,SSW,205,0.0,0.0,50,0.00,,FEW180,0.00,VWS V15.00,2015-03-30 13:42:00,
2015-03-30 06:47:00,38.1,21.1,30.22,SSW,205,0.0,0.0,50,0.00,,FEW180,0.00,VWS V15.00,2015-03-30 13:47:00,
2015-03-30 06:52:00,38.1,21.1,30.22,SSW,205,0.0,0.0,50,0.00,,FEW180,0.00,VWS V15.00,2015-03-30 13:52:00,
2015-03-30 06:57:00,37.9,21.9,30.22,SSW,205,0.0,0.0,52,0.00,,FEW180,0.00,VWS V15.00,2015-03-30 13:57:00,
2015-03-30 07:02:00,37.3,22.2,30.22,SSW,205,0.0,0.0,54,0.00,,FEW180,0.00,VWS V15.00,2015-03-30 14:02:00,
2015-03-30 07:07:00,36.8,23.0,30.22,SSW,205,0.0,0.0,57,0.00,,FEW180,0.00,VWS V15.00,2015-03-30 14:07:00,
2015-03-30 07:12:00,36.3,23.0,30.23,SSW,205,0.0,0.0,58,0.00,,FEW180,0.00,VWS V15.00,2015-03-30 14:12:00,
2015-03-30 07:17:00,36.0,23.1,30.23,SSW,205,0.0,0.0,59,0.00,,FEW180,0.00,VWS V15.00,2015-03-30 14:17:00,
2015-03-30 07:22:00,36.1,22.4,30.23,SSW,205,0.0,0.0,57,0.00,,FEW180,0.00,VWS V15.00,2015-03-30 14:22:00,
2015-03-30 07:27:00,36.8,22.6,30.23,SSW,205,0.0,0.0,56,0.00,,FEW180,0.00,VWS V15.00,2015-03-30 14:27:00,
2015-03-30 07:32:00,37.3,22.2,30.23,SSW,205,0.0,0.0,54,0.00,,FEW180,0.00,VWS V15.00,2015-03-30 14:32:00,
2015-03-30 07:37:00,38.3,22.7,30.23,SSW,205,0.0,0.0,53,0.00,,FEW180,0.00,VWS V15.00,2015-03-30 14:37:00,
2015-03-30 07:42:00,39.2,22.1,30.23,SSW,205,0.0,0.0,50,0.00,,FEW180,0.00,VWS V15.00,2015-03-30 14:42:00,
2015-03-30 07:47:00,39.6,23.9,30.23,SSW,205,0.0,0.0,53,0.00,,FEW180,0.00,VWS V15.00,2015-03-30 14:47:00,
2015-03-30 07:52:00,40.0,24.7,30.22,SSW,205,0.0,0.0,54,0.00,,FEW180,0.00,VWS V15.00,2015-03-30 14:52:00,
2015-03-30 07:57:00,41.1,24.8,30.22,SSW,205,0.0,0.0,52,0.00,,FEW180,0.00,VWS V15.00,2015-03-30 14:57:00,
2015-03-30 08:02:00,41.0,24.7,30.23,SSW,205,0.0,0.0,52,0.00,,FEW180,0.00,VWS V15.00,2015-03-30 15:02:00,
2015-03-30 08:07:00,41.1,25.3,30.23,SSW,205,0.0,0.0,53,0.00,,FEW180,0.00,VWS V15.00,2015-03-30 15:07:00,
2015-03-30 08:12:00,42.4,25.6,30.23,SSW,205,0.0,0.0,51,0.00,,FEW180,0.00,VWS V15.00,2015-03-30 15:12:00,
2015-03-30 08:17:00,43.2,24.9,30.22,SSW,205,0.0,0.0,48,0.00,,FEW180,0.00,VWS V15.00,2015-03-30 15:17:00,
2015-03-30 08:22:00,44.8,25.3,30.23,SSW,205,0.0,0.0,46,0.00,,FEW180,0.00,VWS V15.00,2015-03-30 15:22:00,
2015-03-30 08:27:00,46.3,26.1,30.23,SSW,205,0.0,1.0,45,0.00,,FEW180,0.00,VWS V15.00,2015-03-30 15:27:00,
2015-03-30 08:32:00,47.5,26.7,30.22,SSW,211,0.0,1.0,44,0.00,,FEW180,0.00,VWS V15.00,2015-03-30 15:32:00,
2015-03-30 08:37:00,48.3,26.3,30.22,SW,221,0.0,2.0,42,0.00,,FEW180,0.00,VWS V15.00,2015-03-30 15:37:00,
2015-03-30 08:42:00,48.8,26.7,30.22,SW,222,2.0,3.0,42,0.00,,FEW180,0.00,VWS V15.00,2015-03-30 15:42:00,
2015-03-30 08:47:00,49.5,27.4,30.22,SSW,201,1.0,3.0,42,0.00,,FEW180,0.00,VWS V15.00,2015-03-30 15:47:00,
2015-03-30 08:52:00,50.4,28.2,30.22,SSW,208,0.0,3.0,42,0.00,,FEW180,0.00,VWS V15.00,2015-03-30 15:52:00,
2015-03-30 08:57:00,51.8,28.9,30.22,SSW,208,0.0,3.0,41,0.00,,FEW180,0.00,VWS V15.00,2015-03-30 15:57:00,
2015-03-30 09:02:00,52.6,28.4,30.22,SSW,210,0.0,3.0,39,0.00,,FEW180,0.00,VWS V15.00,2015-03-30 16:02:00,
2015-03-30 09:07:00,53.5,27.9,30.22,WSW,245,0.0,3.0,37,0.00,,FEW180,0.00,VWS V15.00,2015-03-30 16:07:00,
2015-03-30 09:12:00,54.3,27.2,30.22,SW,215,0.0,3.0,35,0.00,,FEW180,0.00,VWS V15.00,2015-03-30 16:12:00,
2015-03-30 09:17:00,54.4,27.3,30.22,SW,215,0.0,3.0,35,0.00,,FEW180,0.00,VWS V15.00,2015-03-30 16:17:00,
2015-03-30 09:22:00,54.9,27.8,30.22,SW,214,0.0,3.0,35,0.00,,FEW180,0.00,VWS V15.00,2015-03-30 16:22:00,
2015-03-30 09:27:00,55.5,26.9,30.22,SSW,203,0.0,3.0,33,0.00,,FEW180,0.00,VWS V15.00,2015-03-30 16:27:00,
2015-03-30 09:32:00,55.9,27.2,30.22,SSW,212,0.0,3.0,33,0.00,,FEW180,0.00,VWS V15.00,2015-03-30 16:32:00,
2015-03-30 09:37:00,56.1,28.1,30.22,SSE,164,0.0,3.0,34,0.00,,FEW180,0.00,VWS V15.00,2015-03-30 16:37:00,
2015-03-30 09:42:00,56.5,27.8,30.21,SW,223,1.0,3.0,33,0.00,,FEW180,0.00,VWS V15.00,2015-03-30 16:42:00,
2015-03-30 09:47:00,56.4,27.7,30.21,WNW,299,0.0,3.0,33,0.00,,FEW180,0.00,VWS V15.00,2015-03-30 16:47:00,
2015-03-30 09:52:00,56.8,27.3,30.21,West,263,0.0,3.0,32,0.00,,FEW180,0.00,VWS V15.00,2015-03-30 16:52:00,
2015-03-30 09:57:00,56.5,26.2,30.21,NW,311,0.0,2.0,31,0.00,,FEW180,0.00,VWS V15.00,2015-03-30 16:57:00,
2015-03-30 10:02:00,57.0,27.5,30.22,NW,311,0.0,2.0,32,0.00,,FEW180,0.00,VWS V15.00,2015-03-30 17:02:00,
2015-03-30 10:07:00,57.6,26.4,30.21,NW,311,0.0,2.0,30,0.00,,FEW180,0.00,VWS V15.00,2015-03-30 17:07:00,
2015-03-30 10:12:00,57.6,26.4,30.21,NW,313,0.0,3.0,30,0.00,,FEW180,0.00,VWS V15.00,2015-03-30 17:12:00,
2015-03-30 10:17:00,58.6,27.3,30.21,SSW,212,1.0,3.0,30,0.00,,FEW180,0.00,VWS V15.00,2015-03-30 17:17:00,
2015-03-30 10:22:00,59.6,28.1,30.21,SW,221,0.0,3.0,30,0.00,,FEW180,0.00,VWS V15.00,2015-03-30 17:22:00,
2015-03-30 10:27:00,60.6,28.2,30.21,SW,224,0.0,3.0,29,0.00,,FEW180,0.00,VWS V15.00,2015-03-30 17:27:00,
2015-03-30 10:32:00,60.9,26.7,30.20,SSW,205,1.0,5.0,27,0.00,,FEW180,0.00,VWS V15.00,2015-03-30 17:32:00,
2015-03-30 10:37:00,61.2,27.0,30.20,SW,215,1.0,5.0,27,0.00,,FEW180,0.00,VWS V15.00,2015-03-30 17:37:00,
2015-03-30 10:42:00,62.0,26.8,30.20,SSW,208,2.0,5.0,26,0.00,,FEW180,0.00,VWS V15.00,2015-03-30 17:42:00,
2015-03-30 10:47:00,62.5,26.2,30.20,SSW,210,1.0,5.0,25,0.00,,FEW180,0.00,VWS V15.00,2015-03-30 17:47:00,
2015-03-30 10:52:00,62.7,27.4,30.20,NW,312,1.0,5.0,26,0.00,,FEW180,0.00,VWS V15.00,2015-03-30 17:52:00,
2015-03-30 10:57:00,63.0,26.6,30.19,SSW,200,0.0,5.0,25,0.00,,FEW180,0.00,VWS V15.00,2015-03-30 17:57:00,
2015-03-30 11:02:00,64.0,27.5,30.19,SSW,205,0.0,5.0,25,0.00,,FEW180,0.00,VWS V15.00,2015-03-30 18:02:00,
2015-03-30 11:07:00,65.4,26.7,30.19,SW,222,2.0,5.0,23,0.00,,FEW180,0.00,VWS V15.00,2015-03-30 18:07:00,
2015-03-30 11:12:00,66.2,26.3,30.18,SE,129,1.0,5.0,22,0.00,,FEW180,0.00,VWS V15.00,2015-03-30 18:12:00,
2015-03-30 11:17:00,66.4,26.4,30.18,NW,314,2.0,5.0,22,0.00,,FEW180,0.00,VWS V15.00,2015-03-30 18:17:00,
2015-03-30 11:22:00,66.2,27.3,30.18,NW,307,0.0,5.0,23,0.00,,FEW180,0.00,VWS V15.00,2015-03-30 18:22:00,
2015-03-30 11:27:00,66.9,26.9,30.18,SW,234,0.0,5.0,22,0.00,,FEW180,0.00,VWS V15.00,2015-03-30 18:27:00,
2015-03-30 11:32:00,66.7,25.6,30.18,NW,316,3.0,5.0,21,0.00,,FEW180,0.00,VWS V15.00,2015-03-30 18:32:00,
2015-03-30 11:37:00,66.4,25.3,30.17,NNW,333,1.0,5.0,21,0.00,,FEW180,0.00,VWS V15.00,2015-03-30 18:37:00,
2015-03-30 11:42:00,66.9,25.7,30.17,NW,305,2.0,5.0,21,0.00,,FEW180,0.00,VWS V15.00,2015-03-30 18:42:00,
2015-03-30 11:47:00,67.3,26.1,30.17,WNW,302,1.0,5.0,21,0.00,,FEW180,0.00,VWS V15.00,2015-03-30 18:47:00,
2015-03-30 11:52:00,67.8,26.5,30.16,WNW,302,1.0,5.0,21,0.00,,FEW180,0.00,VWS V15.00,2015-03-30 18:52:00,
2015-03-30 11:56:00,68.4,24.6,30.16,ESE,107,0.0,1.0,19,0.00,,FEW180,0.00,VWS V15.00,2015-03-30 18:56:00,
2015-03-30 12:01:00,69.0,25.1,30.16,NNW,330,0.0,3.0,19,0.00,,FEW180,0.00,VWS V15.00,2015-03-30 19:01:00,
2015-03-30 12:06:00,69.7,25.6,30.16,NNW,339,3.0,3.0,19,0.00,,FEW180,0.00,VWS V15.00,2015-03-30 19:06:00,
2015-03-30 12:11:00,69.6,22.9,30.15,NNE,20,2.0,4.0,17,0.00,,FEW180,0.00,VWS V15.00,2015-03-30 19:11:00,
2015-03-30 12:16:00,70.1,26.0,30.15,NW,307,0.0,4.0,19,0.00,,FEW180,0.00,VWS V15.00,2015-03-30 19:16:00,
2015-03-30 12:21:00,70.4,23.5,30.15,NNE,25,2.0,5.0,17,0.00,,FEW180,0.00,VWS V15.00,2015-03-30 19:21:00,
2015-03-30 12:26:00,70.8,23.9,30.15,NW,307,0.0,5.0,17,0.00,,FEW180,0.00,VWS V15.00,2015-03-30 19:26:00,
2015-03-30 12:31:00,71.5,24.4,30.14,NW,323,2.0,5.0,17,0.00,,FEW180,0.00,VWS V15.00,2015-03-30 19:31:00,
2015-03-30 12:36:00,71.6,24.5,30.14,NNW,340,3.0,7.0,17,0.00,,FEW180,0.00,VWS V15.00,2015-03-30 19:36:00,
2015-03-30 12:41:00,72.0,24.8,30.14,ENE,70,2.0,7.0,17,0.00,,FEW180,0.00,VWS V15.00,2015-03-30 19:41:00,
2015-03-30 12:46:00,72.9,24.1,30.13,North,359,1.0,7.0,16,0.00,,FEW180,0.00,VWS V15.00,2015-03-30 19:46:00,
2015-03-30 12:51:00,73.0,22.7,30.13,NE,49,2.0,7.0,15,0.00,,FEW180,0.00,VWS V15.00,2015-03-30 19:51:00,
2015-03-30 12:56:00,73.4,24.5,30.12,NE,44,3.0,7.0,16,0.00,,FEW180,0.00,VWS V15.00,2015-03-30 19:56:00,
2015-03-30 13:01:00,74.2,25.2,30.12,NNE,30,4.0,7.0,16,0.00,,FEW180,0.00,VWS V15.00,2015-03-30 20:01:00,
2015-03-30 13:06:00,74.2,22.0,30.12,WNW,302,1.0,7.0,14,0.00,,FEW180,0.00,VWS V15.00,2015-03-30 20:06:00,
2015-03-30 13:11:00,74.2,23.6,30.12,SW,222,2.0,7.0,15,0.00,,FEW180,0.00,VWS V15.00,2015-03-30 20:11:00,
2015-03-30 13:16:00,75.5,24.7,30.11,SSW,207,2.0,7.0,15,0.00,,FEW180,0.00,VWS V15.00,2015-03-30 20:16:00,
2015-03-30 13:21:00,76.4,23.7,30.11,ENE,68,2.0,8.0,14,0.00,,FEW180,0.00,VWS V15.00,2015-03-30 20:21:00,
2015-03-30 13:26:00,76.3,23.6,30.11,East,91,2.0,8.0,14,0.00,,FEW180,0.00,VWS V15.00,2015-03-30 20:26:00,
2015-03-30 13:31:00,76.3,21.9,30.11,NW,309,3.0,8.0,13,0.00,,FEW180,0.00,VWS V15.00,2015-03-30 20:31:00,
2015-03-30 13:36:00,75.8,24.9,30.10,NW,309,2.0,8.0,15,0.00,,FEW180,0.00,VWS V15.00,2015-03-30 20:36:00,
2015-03-30 13:41:00,76.5,23.8,30.10,East,101,1.0,8.0,14,0.00,,FEW180,0.00,VWS V15.00,2015-03-30 20:41:00,
2015-03-30 13:46:00,77.1,24.3,30.10,NNW,341,2.0,8.0,14,0.00,,FEW180,0.00,VWS V15.00,2015-03-30 20:46:00,
2015-03-30 13:51:00,77.7,24.8,30.10,SSW,201,0.0,8.0,14,0.00,,FEW180,0.00,VWS V15.00,2015-03-30 20:51:00,
2015-03-30 13:56:00,78.1,23.3,30.09,WNW,292,0.0,3.0,13,0.00,,FEW180,0.00,VWS V15.00,2015-03-30 20:56:00,
2015-03-30 14:01:00,78.1,25.1,30.09,WSW,247,1.0,8.0,14,0.00,,FEW180,0.00,VWS V15.00,2015-03-30 21:01:00,
2015-03-30 14:06:00,78.7,25.5,30.09,WNW,298,0.0,8.0,14,0.00,,FEW180,0.00,VWS V15.00,2015-03-30 21:06:00,
2015-03-30 14:11:00,77.6,21.0,30.08,WNW,297,4.0,8.0,12,0.00,,FEW180,0.00,VWS V15.00,2015-03-30 21:11:00,
2015-03-30 14:16:00,76.5,22.0,30.08,North,352,1.0,8.0,13,0.00,,FEW180,0.00,VWS V15.00,2015-03-30 21:16:00,
2015-03-30 14:21:00,77.5,22.8,30.07,WNW,296,5.0,8.0,13,0.00,,FEW180,0.00,VWS V15.00,2015-03-30 21:21:00,
2015-03-30 14:26:00,77.8,21.2,30.07,North,352,3.0,8.0,12,0.00,,FEW180,0.00,VWS V15.00,2015-03-30 21:26:00,
2015-03-30 14:31:00,77.4,22.8,30.07,WNW,300,1.0,8.0,13,0.00,,FEW180,0.00,VWS V15.00,2015-03-30 21:31:00,
2015-03-30 14:36:00,77.7,23.0,30.06,WNW,295,6.0,8.0,13,0.00,,FEW180,0.00,VWS V15.00,2015-03-30 21:36:00,
2015-03-30 14:41:00,77.5,22.8,30.06,NW,309,2.0,8.0,13,0.00,,FEW180,0.00,VWS V15.00,2015-03-30 21:41:00,
2015-03-30 14:46:00,78.2,23.4,30.06,SW,229,4.0,8.0,13,0.00,,FEW180,0.00,VWS V15.00,2015-03-30 21:46:00,
2015-03-30 14:51:00,78.9,22.0,30.06,SSW,212,2.0,8.0,12,0.00,,FEW180,0.00,VWS V15.00,2015-03-30 21:51:00,
2015-03-30 14:56:00,79.2,25.9,30.05,ENE,68,1.0,8.0,14,0.00,,FEW180,0.00,VWS V15.00,2015-03-30 21:56:00,
2015-03-30 15:01:00,79.9,24.7,30.05,West,259,1.0,8.0,13,0.00,,FEW180,0.00,VWS V15.00,2015-03-30 22:01:00,
2015-03-30 15:06:00,80.0,24.8,30.04,SSW,207,2.0,8.0,13,0.00,,FEW180,0.00,VWS V15.00,2015-03-30 22:06:00,
2015-03-30 15:11:00,80.0,22.9,30.04,SSW,203,3.0,8.0,12,0.00,,FEW180,0.00,VWS V15.00,2015-03-30 22:11:00,
2015-03-30 15:16:00,79.9,22.8,30.04,WNW,301,8.0,8.0,12,0.00,,FEW180,0.00,VWS V15.00,2015-03-30 22:16:00,
2015-03-30 15:21:00,79.0,24.0,30.03,NW,321,3.0,11.0,13,0.00,,FEW180,0.00,VWS V15.00,2015-03-30 22:21:00,
2015-03-30 15:26:00,78.7,23.8,30.03,NW,309,10.0,12.0,13,0.00,,FEW180,0.00,VWS V15.00,2015-03-30 22:26:00,
2015-03-30 15:31:00,78.1,25.1,30.03,NW,311,6.0,12.0,14,0.00,,FEW180,0.00,VWS V15.00,2015-03-30 22:31:00,
2015-03-30 15:36:00,78.2,25.1,30.03,WSW,252,4.0,12.0,14,0.00,,FEW180,0.00,VWS V15.00,2015-03-30 22:36:00,
2015-03-30 15:41:00,79.2,25.9,30.03,SW,228,4.0,12.0,14,0.00,,FEW180,0.00,VWS V15.00,2015-03-30 22:41:00,
2015-03-30 15:46:00,79.0,25.8,30.02,NW,304,0.0,12.0,14,0.00,,FEW180,0.00,VWS V15.00,2015-03-30 22:46:00,
2015-03-30 15:51:00,79.1,25.9,30.02,NW,304,3.0,12.0,14,0.00,,FEW180,0.00,VWS V15.00,2015-03-30 22:51:00,
2015-03-30 15:56:00,79.3,24.2,30.02,West,277,1.0,6.0,13,0.00,,FEW180,0.00,VWS V15.00,2015-03-30 22:56:00,
2015-03-30 16:01:00,79.1,24.1,30.02,SW,214,2.0,12.0,13,0.00,,FEW180,0.00,VWS V15.00,2015-03-30 23:01:00,
2015-03-30 16:06:00,78.5,23.6,30.02,NW,315,10.0,12.0,13,0.00,,FEW180,0.00,VWS V15.00,2015-03-30 23:06:00,
2015-03-30 16:11:00,78.1,25.1,30.02,NW,304,3.0,12.0,14,0.00,,FEW180,0.00,VWS V15.00,2015-03-30 23:11:00,
2015-03-30 16:16:00,78.0,25.0,30.01,West,275,1.0,13.0,14,0.00,,FEW180,0.00,VWS V15.00,2015-03-30 23:16:00,
2015-03-30 16:21:00,77.6,26.3,30.01,WNW,297,1.0,13.0,15,0.00,,FEW180,0.00,VWS V15.00,2015-03-30 23:21:00,
2015-03-30 16:26:00,77.2,26.0,30.01,WNW,291,3.0,13.0,15,0.00,,FEW180,0.00,VWS V15.00,2015-03-30 23:26:00,
2015-03-30 16:31:00,76.6,27.1,30.01,WNW,290,3.0,13.0,16,0.00,,FEW180,0.00,VWS V15.00,2015-03-30 23:31:00,
2015-03-30 16:36:00,76.2,28.2,30.02,NW,309,3.0,13.0,17,0.00,,FEW180,0.00,VWS V15.00,2015-03-30 23:36:00,
2015-03-30 16:41:00,75.7,29.2,30.02,NW,311,9.0,13.0,18,0.00,,FEW180,0.00,VWS V15.00,2015-03-30 23:41:00,
2015-03-30 16:46:00,75.5,29.1,30.01,WNW,283,4.0,14.0,18,0.00,,FEW180,0.00,VWS V15.00,2015-03-30 23:46:00,
2015-03-30 16:51:00,75.7,29.2,30.01,NNW,338,2.0,14.0,18,0.00,,FEW180,0.00,VWS V15.00,2015-03-30 23:51:00,
2015-03-30 16:55:00,75.8,29.3,30.01,WNW,295,6.0,14.0,18,0.00,,FEW180,0.00,VWS V15.00,2015-03-30 23:55:00,
2015-03-30 17:00:00,75.9,29.4,30.01,NW,304,4.0,14.0,18,0.00,,FEW180,0.00,VWS V15.00,2015-03-31 00:00:00,
2015-03-30 17:05:00,76.2,29.6,30.01,SSW,198,6.0,14.0,18,0.00,,FEW180,0.00,VWS V15.00,2015-03-31 00:05:00,
2015-03-30 17:10:00,76.1,29.6,30.01,NW,320,7.0,14.0,18,0.00,,FEW180,0.00,VWS V15.00,2015-03-31 00:10:00,
2015-03-30 17:15:00,75.5,31.7,30.01,WNW,283,2.0,14.0,20,0.00,,FEW180,0.00,VWS V15.00,2015-03-31 00:15:00,
2015-03-30 17:20:00,75.3,31.5,30.01,South,178,6.0,14.0,20,0.00,,FEW180,0.00,VWS V15.00,2015-03-31 00:20:00,
2015-03-30 17:25:00,75.1,31.3,30.00,WNW,293,2.0,14.0,20,0.00,,FEW180,0.00,VWS V15.00,2015-03-31 00:25:00,
2015-03-30 17:30:00,74.8,31.1,30.01,WNW,299,6.0,14.0,20,0.00,,FEW180,0.00,VWS V15.00,2015-03-31 00:30:00,
2015-03-30 17:35:00,74.1,30.5,30.01,WNW,295,5.0,14.0,20,0.00,,FEW180,0.00,VWS V15.00,2015-03-31 00:35:00,
2015-03-30 17:40:00,73.7,30.2,30.01,WNW,285,3.0,14.0,20,0.00,,FEW180,0.00,VWS V15.00,2015-03-31 00:40:00,
2015-03-30 17:45:00,73.2,31.0,30.01,NNW,333,3.0,16.0,21,0.00,,FEW180,0.00,VWS V15.00,2015-03-31 00:45:00,
2015-03-30 17:50:00,73.0,29.6,30.01,NW,319,4.0,16.0,20,0.00,,FEW180,0.00,VWS V15.00,2015-03-31 00:50:00,
2015-03-30 17:55:00,72.7,29.4,30.00,WNW,295,2.0,8.0,20,0.00,,FEW180,0.00,VWS V15.00,2015-03-31 00:55:00,
2015-03-30 18:00:00,72.7,29.4,30.00,WNW,287,1.0,13.0,20,0.00,,FEW180,0.00,VWS V15.00,2015-03-31 01:00:00,
2015-03-30 18:05:00,72.5,29.2,30.00,West,274,1.0,13.0,20,0.00,,FEW180,0.00,VWS V15.00,2015-03-31 01:05:00,
2015-03-30 18:10:00,72.6,29.3,30.00,West,260,1.0,13.0,20,0.00,,FEW180,0.00,VWS V15.00,2015-03-31 01:10:00,
2015-03-30 18:15:00,72.0,28.8,30.00,WNW,296,3.0,13.0,20,0.00,,FEW180,0.00,VWS V15.00,2015-03-31 01:15:00,
2015-03-30 18:20:00,71.4,28.3,30.00,WNW,297,8.0,14.0,20,0.00,,FEW180,0.00,VWS V15.00,2015-03-31 01:20:00,